Woodham Mortimer, United Kingdom

10:37 PM GMT on January 16, 2017 (GMT +0000)
Southend

Weather History for EGMC - March, 2013

Change the Weather History Date:

Sunday, March 31, 2013

  Actual Average Record
Temperature  
Mean Temperature 35 °F -  
Max Temperature 42 °F 55 °F 64 °F (1999)
Min Temperature 28 °F 40 °F 28 °F (2013)
Degree Days  
Heating Degree Days 30    
Moisture  
Dew Point 26 °F    
Average Humidity 73    
Maximum Humidity 87    
Minimum Humidity 42    
Precipitation  
Precipitation 0.00 in - - ()
Sea Level Pressure  
Sea Level Pressure 29.95 in    
Wind  
Wind Speed 7 mph ()    
Max Wind Speed 14 mph    
Max Gust Speed -    
Visibility 6.2 miles    
Events      
Averages and records for this station are not official NWS values.
T = Trace of Precipitation, MM = Missing Value Source: Averaged Metar Reports

Daily Weather History Graph

Daily Weather History Graph

Search for Another Location

Airport or City:

Trip Planner

Search our weather history database for the weather conditions in past years. The results will help you decide how hot, cold, wet, or windy it might be!

Date:

Astronomy

Mar. 31, 2013 Rise Set
Actual Time 6:34 AM BST 7:29 PM BST
Civil Twilight 6:00 AM BST 8:03 PM BST
Nautical Twilight 5:20 AM BST 8:43 PM BST
Astronomical Twilight 4:36 AM BST 9:27 PM BST
Moon No Moon Rise 8:38 AM BST (3/31)
Length of Visible Light 14h 02m
Length of Day
12h 54m
Waning Gibbous, 80% of the Moon is Illuminated
Mar 31
Waning Gibbous
Apr 3
Last Quarter
Apr 10
New
Apr 18
First Quarter
Apr 25
Full

Hourly Weather History & Observations

Time (BST) Temp. Windchill Dew Point Humidity Pressure Visibility Wind Dir Wind Speed Gust Speed Precip Events Conditions
12:50 AM 28.4 °F 22.2 °F 24.8 °F 86% 29.95 in - North 5.8 mph - N/A   Clear
2:50 AM 28.4 °F 22.2 °F 24.8 °F 86% 29.95 in - North 5.8 mph - N/A   Clear
3:50 AM 28.4 °F 22.2 °F 24.8 °F 86% 29.95 in - North 5.8 mph - N/A   Clear
4:50 AM 28.4 °F 22.2 °F 24.8 °F 86% 29.95 in - North 5.8 mph - N/A   Clear
5:20 AM 28.4 °F 23.3 °F 24.8 °F 86% 29.95 in - North 4.6 mph - N/A   Clear
5:50 AM 28.4 °F 22.2 °F 23.0 °F 80% 29.95 in - North 5.8 mph - N/A   Clear
6:20 AM 28.4 °F 22.2 °F 24.8 °F 86% 29.98 in 6.2 mi NNW 5.8 mph - N/A   Partly Cloudy
6:50 AM 28.4 °F 21.2 °F 24.8 °F 86% 29.98 in 6.2 mi North 6.9 mph - N/A   Partly Cloudy
7:20 AM 30.2 °F 24.3 °F 24.8 °F 80% 29.98 in 6.2 mi North 5.8 mph - N/A   Partly Cloudy
7:50 AM 30.2 °F 24.3 °F 24.8 °F 80% 29.98 in 6.2 mi North 5.8 mph - N/A   Partly Cloudy
8:20 AM 30.2 °F 23.4 °F 26.6 °F 86% 29.98 in 6.2 mi NNE 6.9 mph - N/A   Scattered Clouds
8:50 AM 30.2 °F 23.4 °F 26.6 °F 86% 29.98 in 6.2 mi North 6.9 mph - N/A   Scattered Clouds
9:20 AM 32.0 °F 26.4 °F 28.4 °F 87% 29.98 in 6.2 mi North 5.8 mph - N/A   Scattered Clouds
9:50 AM 33.8 °F 27.7 °F 30.2 °F 87% 29.98 in 6.2 mi NNE 6.9 mph - N/A   Mostly Cloudy
10:20 AM 35.6 °F 29.9 °F 30.2 °F 81% 29.98 in 6.2 mi NNE 6.9 mph - N/A   Mostly Cloudy
10:50 AM 37.4 °F 32.1 °F 28.4 °F 70% 29.98 in 6.2 mi NE 6.9 mph - N/A   Mostly Cloudy
11:20 AM 39.2 °F 33.0 °F 28.4 °F 65% 29.98 in 6.2 mi NE 9.2 mph - N/A   Partly Cloudy
11:50 AM 41.0 °F 34.3 °F 26.6 °F 57% 29.98 in 6.2 mi ENE 11.5 mph - N/A   Scattered Clouds
12:20 PM 39.2 °F 31.2 °F 28.4 °F 65% 29.98 in 6.2 mi East 13.8 mph - N/A   Mostly Cloudy
12:50 PM 39.2 °F 31.2 °F 28.4 °F 65% 29.98 in 6.2 mi ENE 13.8 mph - N/A   Mostly Cloudy
1:20 PM 39.2 °F 31.6 °F 26.6 °F 61% 29.98 in 6.2 mi ENE 12.7 mph - N/A   Mostly Cloudy
1:50 PM 39.2 °F 32.5 °F 26.6 °F 61% 29.98 in 6.2 mi East 10.4 mph - N/A   Partly Cloudy
2:20 PM 42.8 °F 35.8 °F 24.8 °F 49% 29.95 in 6.2 mi East 13.8 mph - N/A   Partly Cloudy
2:50 PM 39.2 °F 32.0 °F 23.0 °F 52% 29.95 in 6.2 mi NE 11.5 mph - N/A   Partly Cloudy
3:20 PM 41.0 °F 35.2 °F 19.4 °F 42% 29.95 in 6.2 mi East 9.2 mph - N/A   Partly Cloudy
3:50 PM 41.0 °F 34.3 °F 23.0 °F 49% 29.95 in 6.2 mi East 11.5 mph - N/A   Partly Cloudy
4:20 PM 41.0 °F 35.2 °F 23.0 °F 49% 29.95 in 6.2 mi East 9.2 mph - N/A   Partly Cloudy
4:50 PM 39.2 °F 32.0 °F 24.8 °F 56% 29.95 in 6.2 mi East 11.5 mph - N/A   Partly Cloudy
5:50 PM 37.4 °F 29.8 °F 26.6 °F 65% 29.92 in 6.2 mi East 11.5 mph - N/A   Partly Cloudy
6:20 PM 37.4 °F 29.8 °F 26.6 °F 65% 29.92 in 6.2 mi East 11.5 mph - N/A   Partly Cloudy
6:50 PM 37.4 °F 31.4 °F 28.4 °F 70% 29.92 in 6.2 mi East 8.1 mph - N/A   Partly Cloudy
7:20 PM 35.6 °F 28.6 °F 28.4 °F 75% 29.92 in 6.2 mi ENE 9.2 mph - N/A   Partly Cloudy
7:50 PM 33.8 °F 27.7 °F 28.4 °F 81% 29.92 in 6.2 mi ENE 6.9 mph - N/A   Partly Cloudy
8:20 PM 33.8 °F 28.6 °F 28.4 °F 81% 29.92 in 6.2 mi ENE 5.8 mph - N/A   Partly Cloudy
8:50 PM 35.6 °F 30.7 °F 28.4 °F 75% 29.92 in 6.2 mi ENE 5.8 mph - N/A   Partly Cloudy
9:20 PM 33.8 °F 27.7 °F 26.6 °F 75% 29.92 in 6.2 mi ENE 6.9 mph - N/A   Partly Cloudy
9:50 PM 32.0 °F 25.6 °F 26.6 °F 80% 29.92 in 6.2 mi ENE 6.9 mph - N/A   Partly Cloudy
10:20 PM 32.0 °F 26.4 °F 26.6 °F 80% 29.92 in 6.2 mi ENE 5.8 mph - N/A   Partly Cloudy
10:50 PM 32.0 °F 25.6 °F 26.6 °F 80% 29.92 in 6.2 mi ENE 6.9 mph - N/A   Partly Cloudy
11:50 PM 32.0 °F 26.4 °F 26.6 °F 80% 29.92 in 6.2 mi ENE 5.8 mph - N/A   Partly Cloudy
12:50 AM 35.6 °F 27.1 °F 28.4 °F 75% 29.89 in 6.2 mi ENE 12.7 mph - N/A   Scattered Clouds